Location: Chakepay
(13.3931°S, 72.1925°W)
Time: 00:00:32
(UTC+00:00)

GEOS 3 Rocket - Pass Details

Date: 15 November 2019
Orbit: 786 x 833 km, 115.0° (Epoch: 09 December)

Event Time Altitude Azimuth Distance (km) Brightness Sun altitude
Rises 08:38:46 0° 146° (SE) 3,306 7.8 -21.7°
Reaches altitude 10° 08:41:06 10° 142° (SE) 2,367 6.9 -21.1°
Maximum altitude 08:46:10 62° 62° (ENE) 882 3.9 -20.0°
Enters shadow 08:49:33 21° 346° (NNW) 1,712 4.9 -19.3°
